User: anonymous   Login
Location: Newark
(46.3833°N, 6.2000°E)
Time: 07:50:50
(UTC+00:00)
Language:

N. Korean satellite - Orbit

View from above orbital plane
View from above orbital plane
View from above satellite
View from above satellite

Ground track
Ground track

The orbit data is extracted from the following two-line orbital elements,

1 39026U 12072A   20095.79633699 +.00000762 +00000-0 +29596-4 0  9990
2 39026 097.2224 094.7877 0038525 143.8668 216.5187 15.28416292405996
Epoch (UTC): 04 April 2020 19:06:43
Eccentricity: 0.0038525
inclination: 97.2224°
perigee height: 454 km
apogee height: 507 km
right ascension of ascending node: 94.7877°
argument of perigee: 143.8668°
revolutions per day: 15.28416292
mean anomaly at epoch: 216.5187°
orbit number at epoch: 40599

The dashed part of the orbit path shows where the satellite is in the earth's shadow,  

DLR